User: anonymous   Login
Location: Unspecified
(0.0000°N, 0.0000°E)
Time: 23:16:00
(UTC+00:00)
Language:

Vela 4A - Orbit

View from above orbital plane
View from above orbital plane
View from above satellite
View from above satellite

Ground track
Ground track

The orbit data is extracted from the following two-line orbital elements,

1 02765U 67040A   14357.59773622 -.00000585  00000-0  00000+0 0   188
2 02765 005.6491 332.8786 4652894 187.8506 000.1340 00.21643701 37391
Epoch (UTC): 23 December 2014 14:20:44
Eccentricity: 0.4652894
inclination: 5.6491°
perigee height: 56278 km
apogee height: 165320 km
right ascension of ascending node: 332.8786°
argument of perigee: 187.8506°
revolutions per day: 0.21643701
mean anomaly at epoch: 0.1340°
orbit number at epoch: 3739

The dashed part of the orbit path shows where the satellite is in the earth's shadow,  

DLR